GSAT0220 (GALILEO 24)

Last updated on Sun Jun 21 2026 00:02:55 GMT+0000 (Coordinated Universal Time)

1 43567U 18060D 26170.48626588 -.00000094 00000+0 00000+0 0 9995 2 43567 57.1712 341.7225 0002111 313.2574 46.7188 1.70475760 49211
UTC large
Height (km)
Speed (km/s)
/
Latitude / Longitude
Inclination (degrees)
Orbital Period (minutes)
Azimuth
Elevation
Range (km)
Doppler Factor

Next 0 passes for location: London (51.5072 / 0.1276)

No passes found over London.
GSAT0220 (GALILEO 24)